User: anonymous   Login
Location: Unspecified
(0.0000°N, 0.0000°E)
Time: 20:28:48
(UTC+01:00)
Language:

Milstar 3 Cent rocket - Orbit

View from above orbital plane
View from above orbital plane
View from above satellite
View from above satellite

Ground track
Ground track

The orbit data is extracted from the following two-line orbital elements,

1 25725U 99023B   14341.30475225 0.00000060  00000-0  13337-3 0    04
2 25725  28.3251  41.3663 2388418   2.3095 357.6899  9.67207213    04
Epoch (UTC): 07 December 2014 07:18:50
Eccentricity: 0.2388418
inclination: 28.3251°
perigee height: 704 km
apogee height: 5149 km
right ascension of ascending node: 41.3663°
argument of perigee: 2.3095°
revolutions per day: 9.67207213
mean anomaly at epoch: 357.6899°
orbit number at epoch: 0

The dashed part of the orbit path shows where the satellite is in the earth's shadow,  

DLR